Location: Nürtingen
(48.6244°N, 9.3469°E)
Time: 23:45:51
(UTC+02:00)

OTV 5 (USA 277) - Visible Passes

Search period start: 15 October 2019 00:00
Search period end: 25 October 2019 00:00
Orbit: 310 x 324 km, 54.5° (Epoch: 08 October)

Date Brightness Start Highest point End Pass type
(mag) Time Alt. Az. Time Alt. Az. Time Alt. Az.
15 Oct ? 05:53:05 28° N 05:53:19 28° NNE 05:55:46 10° ENE visible
16 Oct ? 06:07:19 33° NNW 06:08:02 42° NNE 06:10:40 10° E visible
17 Oct ? 06:21:37 34° NW 06:22:40 81° NNE 06:25:24 10° ESE visible
18 Oct ? 05:05:07 12° E 05:05:07 12° E 05:05:21 10° E visible
18 Oct ? 06:36:01 26° W 06:37:11 44° SW 06:39:49 10° SE visible
19 Oct ? 05:19:36 15° ESE 05:19:36 15° ESE 05:20:11 10° ESE visible
19 Oct ? 06:50:31 16° WSW 06:51:35 20° SW 06:53:40 10° S visible
20 Oct ? 05:34:13 15° SE 05:34:13 15° SE 05:34:46 10° SE visible
